Regional Weather Roundup
Issued by NWS Goodland, KS

Home | Current Version | Previous Version | Graphics & Text | Print | Product List | Glossary On
Versions: 1 2 3 4 5 6 7 8 9 10 11 12 13 14 15 16 17 18 19 20 21 22 23 24 25 26 27 28 29 30 31 32 33 34 35 36 37 38 39 40 41 42 43 44 45 46 47 48 49 50
000
ASUS43 KGLD 271859
RWRGLD

GOODLAND FORECAST AREA HOURLY WEATHER ROUNDUP
NATIONAL WEATHER SERVICE GOODLAND KS
100 PM MDT WED MAY 27 2015

...OFFICIAL OBSERVATIONS...

CITY           SKY/WX    TMP DP  RH WIND       PRES   REMARKS
GOODLAND KS    MOSUNNY   76  58  53 S20G26    30.05F
HILL CITY KS   LGT RAIN  69  60  73 SE12      30.09F
IMPERIAL NEB   MOSUNNY   72  57  59 SE17G28   30.04F
MCCOOK NEB     CLOUDY    69  57  65 SE15      30.07F
AKRON CO       PTSUNNY   72  48  42 VRB6      30.04F
BURLINGTON CO  SUNNY     76  54  46 S18G26    30.06F
LIMON CO       MOSUNNY   71  47  42 S13G22    30.07F
$$

...UNOFFICIAL OBSERVATIONS...

CITY           SKY/WX    TMP DP  RH WIND       PRES   REMARKS
LENORA KS        N/A     72  32  23 MISG        N/A
$$



USA.gov is the U.S. government's official web portal to all federal, state and local government web resources and services.